| time (UTC) | temp C | wind direction | speed KPH | gust KPH | rain 1hr cm | rain 24hr cm | rain mn cm | humidity % | barometer mb |
| 20260906221254 | 34 | 186 | 4.8 | 6.4 | 0.05 | 0.25 | 0.23 | 31 | 1005.2 |
| 20260906214254 | 34 | 112 | 0.0 | 1.6 | 0.05 | 0.23 | 0.20 | 31 | 1005.5 |
| 20260906211252 | 35 | 175 | 3.2 | 4.8 | 0.05 | 0.20 | 0.18 | 31 | 1005.7 |
| 20260906204251 | 34 | 176 | 1.6 | 3.2 | 0.03 | 0.18 | 0.13 | 32 | 1006.4 |
| 20260906201251 | 34 | 183 | 3.2 | 3.2 | 0.05 | 0.18 | 0.10 | 32 | 1006.8 |
| 20260906194249 | 34 | 171 | 1.6 | 1.6 | 0.05 | 0.20 | 0.08 | 32 | 1007.0 |
| 20260906191248 | 33 | 171 | 1.6 | 3.2 | 0.03 | 0.18 | 0.03 | 34 | 1007.6 |
| 20260906184247 | 33 | 113 | 1.6 | 1.6 | 0.00 | 0.18 | 0.00 | 36 | 1007.9 |
| 20260906181246 | 32 | 128 | 0.0 | 3.2 | 0.00 | 0.15 | 0.00 | 37 | 1008.8 |
| 20260906174245 | 32 | 101 | 1.6 | 3.2 | 0.00 | 0.15 | 0.00 | 42 | 1009.5 |
| 20260906171244 | 32 | 150 | 1.6 | 1.6 | 0.00 | 0.15 | 0.00 | 40 | 1009.4 |
| 20260906164243 | 31 | 186 | 3.2 | 3.2 | 0.00 | 0.15 | 0.00 | 43 | 1009.7 |
| 20260906161242 | 30 | 185 | 1.6 | 3.2 | 0.00 | 0.15 | 0.00 | 51 | 1010.2 |
| 20260906154241 | 28 | 206 | 3.2 | 3.2 | 0.00 | 0.18 | 0.00 | 55 | 1010.5 |
| 20260906151240 | 27 | 195 | 1.6 | 1.6 | 0.00 | 0.20 | 0.00 | 57 | 1010.7 |
| 20260906144239 | 26 | 189 | 1.6 | 1.6 | 0.00 | 0.23 | 0.00 | 60 | 1011.1 |
| 20260906141238 | 25 | 160 | 0.0 | 0.0 | 0.00 | 0.23 | 0.00 | 64 | 1011.6 |
| 20260906134237 | 22 | 360 | 0.0 | 0.0 | 0.00 | 0.23 | 0.00 | 69 | 1012.2 |
| 20260906131236 | 20 | 224 | 0.0 | 0.0 | 0.00 | 0.23 | 0.00 | 74 | 1012.7 |
| 20260906124235 | 20 | 360 | 0.0 | 0.0 | 0.00 | 0.23 | 0.00 | 76 | 1012.5 |
| 20260906121234 | 20 | 148 | 0.0 | 0.0 | 0.00 | 0.23 | 0.00 | 76 | 1012.4 |
| 20260906114233 | 20 | 198 | 0.0 | 0.0 | 0.00 | 0.23 | 0.00 | 75 | 1012.5 |
| 20260906111232 | 20 | 360 | 0.0 | 0.0 | 0.00 | 0.23 | 0.00 | 74 | 1012.2 |
| 20260906104231 | 20 | 360 | 0.0 | 0.0 | 0.00 | 0.23 | 0.00 | 72 | 1012.0 |
| 20260906101230 | 21 | 360 | 0.0 | 0.0 | 0.00 | 0.23 | 0.00 | 69 | 1011.5 |
| 20260906094229 | 21 | 289 | 0.0 | 4.8 | 0.00 | 0.23 | 0.00 | 69 | 1011.0 |
| 20260906091228 | 22 | 194 | 0.0 | 3.2 | 0.00 | 0.23 | 0.00 | 66 | 1010.6 |
| 20260906081837 | 23 | 220 | 0.0 | 0.0 | 0.00 | 0.23 | 0.00 | 63 | 1010.6 |
| 20260906074836 | 23 | 198 | 0.0 | 1.6 | 0.00 | 0.23 | 0.00 | 59 | 1010.3 |
| 20260906071835 | 23 | 231 | 0.0 | 0.0 | 0.00 | 0.23 | 0.00 | 59 | 1010.4 |
| 20260906064834 | 25 | 156 | 0.0 | 1.6 | 0.00 | 0.23 | 0.00 | 54 | 1010.1 |
| 20260906061833 | 26 | 179 | 3.2 | 3.2 | 0.00 | 0.23 | 0.00 | 51 | 1009.9 |
| 20260906054832 | 25 | 176 | 1.6 | 1.6 | 0.00 | 0.23 | 0.00 | 52 | 1009.9 |
| 20260906051831 | 26 | 181 | 0.0 | 0.0 | 0.00 | 0.23 | 0.00 | 50 | 1010.0 |
| 20260906044830 | 26 | 187 | 0.0 | 0.0 | 0.00 | 0.25 | 0.23 | 50 | 1009.7 |
| 20260906041829 | 27 | 341 | 0.0 | 0.0 | 0.00 | 0.28 | 0.23 | 47 | 1009.3 |
| 20260906034828 | 27 | 187 | 1.6 | 1.6 | 0.00 | 0.36 | 0.23 | 46 | 1008.9 |
| 20260906031827 | 28 | 192 | 0.0 | 0.0 | 0.00 | 0.51 | 0.23 | 43 | 1008.3 |
| 20260906024826 | 29 | 190 | 0.0 | 0.0 | 0.00 | 0.69 | 0.23 | 40 | 1007.4 |
| 20260906021825 | 30 | 76 | 0.0 | 0.0 | 0.00 | 0.84 | 0.23 | 38 | 1006.6 |
| 20260906014824 | 31 | 219 | 0.0 | 0.0 | 0.00 | 0.89 | 0.23 | 37 | 1006.0 |
| 20260906011823 | 32 | 97 | 0.0 | 0.0 | 0.00 | 0.89 | 0.23 | 34 | 1005.2 |
| 20260906004822 | 34 | 174 | 0.0 | 0.0 | 0.00 | 0.89 | 0.23 | 30 | 1004.2 |
| 20260906001821 | 35 | 122 | 0.0 | 1.6 | 0.00 | 0.89 | 0.23 | 29 | 1003.8 |
| 20260905234820 | 36 | 120 | 1.6 | 1.6 | 0.00 | 0.89 | 0.23 | 29 | 1003.3 |
| 20260905231819 | 36 | 119 | 1.6 | 1.6 | 0.00 | 0.89 | 0.23 | 29 | 1003.0 |
| 20260905224818 | 36 | 114 | 0.0 | 1.6 | 0.00 | 0.89 | 0.23 | 29 | 1003.0 |
| 20260905221817 | 36 | 184 | 6.4 | 6.4 | 0.00 | 0.89 | 0.20 | 31 | 1003.3 |